Location: Newark
(23.5328°S, 46.7919°W)
Time: 22:22:06
(UTC+00:00)

Envisat - Pass Details

Date: 15 March 2021
Orbit: 764 x 766 km, 98.1° (Epoch: 22 April)

Event Time Altitude Azimuth Distance (km) Brightness Sun altitude
Rises 07:51:42 0° 21° (NNE) 3,212 6.4 -18.4°
Reaches altitude 10° 07:54:00 10° 24° (NNE) 2,293 5.6 -17.9°
Maximum altitude 07:58:59 62° 104° (ESE) 861 3.5 -16.8°
Drops below altitude 10° 08:04:02 10° 184° (S) 2,319 5.6 -15.6°
Sets 08:06:23 0° 187° (S) 3,252 6.3 -15.1°
